This is the latest recevied weather packets stored in our database for station/object KI4MRC. If no packets are shown the sender has not sent any weather packets the latest 10 day(s).
| Time | Temp. | Humidity | Pressure | Rain* | Wind** | Luminosity | Snow |
|---|---|---|---|---|---|---|---|
| 1778084012 | 31.11° C | 64% | 1017.4 hPa | 0 mm | - | 931 W/m² | - |
| 1778083704 | 31.11° C | 58% | 1017.4 hPa | 0 mm | - | 972 W/m² | - |
| 1778083400 | 31.11° C | 58% | 1017.3 hPa | 0 mm | - | 951 W/m² | - |
| 1778083099 | 30.56° C | 61% | 1017.2 hPa | 0 mm | - | 970 W/m² | - |
| 1778082795 | 30.56° C | 61% | 1017.4 hPa | 0 mm | - | 948 W/m² | - |
| 1778081667 | 30.56° C | 66% | 1017.4 hPa | 0 mm | - | 864 W/m² | - |
| 1778081365 | 30° C | 69% | 1017.4 hPa | 0 mm | - | 861 W/m² | - |
| 1778081061 | 30° C | 67% | 1017.1 hPa | 0 mm | - | 873 W/m² | - |
| 1778080760 | 29.44° C | 68% | 1017.3 hPa | 0 mm | - | 888 W/m² | - |
| 1778080456 | 30° C | 67% | 1017.3 hPa | 0 mm | - | 319 W/m² | - |
| 1778080154 | 29.44° C | 68% | 1017.3 hPa | 0 mm | - | 462 W/m² | - |
| 1778079850 | 30° C | 67% | 1017.2 hPa | 0 mm | - | 241 W/m² | - |
| 1778079547 | 30.56° C | 67% | 1017.4 hPa | 0 mm | - | 810 W/m² | - |
| 1778079243 | 30° C | 68% | 1017.2 hPa | 0 mm | - | 825 W/m² | - |
| 1778078941 | 30° C | 66% | 1017.1 hPa | 0 mm | - | 543 W/m² | - |
| 1778078637 | 30° C | 68% | 1017 hPa | 0 mm | - | 693 W/m² | - |
| 1778078336 | 30° C | 70% | 1017.3 hPa | 0 mm | - | 639 W/m² | - |
| 1778078032 | 30° C | 68% | 1017.2 hPa | 0 mm | - | 706 W/m² | - |
| 1778077731 | 30° C | 69% | 1017 hPa | 0 mm | - | 625 W/m² | - |
| 1778077428 | 29.44° C | 70% | 1017.1 hPa | 0 mm | - | 744 W/m² | - |
| 1778077126 | 28.89° C | 72% | 1017 hPa | 0 mm | - | 700 W/m² | - |
| 1778076824 | 28.89° C | 72% | 1017 hPa | 0 mm | - | 660 W/m² | - |
| 1778076522 | 28.89° C | 72% | 1017 hPa | 0 mm | - | 502 W/m² | - |
| 1778076219 | 28.89° C | 71% | 1017 hPa | 0 mm | - | 561 W/m² | - |
| 1778075916 | 28.89° C | 74% | 1016.9 hPa | 0 mm | - | 485 W/m² | - |
* Rain latest hour (hover to see other rain measurements)
** Current wind speed in m/s (hover to see current wind gust speed)